Volver al catálogo

TRANSIT 14 DEB

LostPO
NORAD 26817·DEBRIS·🇺🇸 United States

Lanzado Aug 18, 1966 desde Vandenberg Space Force Base

Loading…

Próximos Pases (próximas 24 horas)

TLE

ObsoletoSource: Space-Track

Época: Jan 30, 2025, 10:02 UTC

1 26817U 66076H   25030.41825123  .00001424  00000-0  16482-2 0  9999
2 26817  88.8255  88.8799 0039380 126.0676 234.4143 13.68143369232048

Sigue TRANSIT 14 DEB en tiempo real con AllMySat

Download on the App Store